TimeEST,TemperatureF,Dew PointF,Humidity,Sea Level PressureIn,VisibilityMPH,Wind Direction,Wind SpeedMPH,Gust SpeedMPH,PrecipitationIn,Events,Conditions,WindDirDegrees,DateUTC
12:15 AM,31.3,31.1,99,30.34,10.0,North,-9999.0,-,N/A,,Clear,0,2012-11-16 05:15:00
12:35 AM,30.7,30.6,99,30.34,10.0,North,-9999.0,-,N/A,,Clear,0,2012-11-16 05:35:00
12:55 AM,31.1,30.9,99,30.33,10.0,North,-9999.0,-,N/A,,Clear,0,2012-11-16 05:55:00
1:15 AM,30.2,30.0,99,30.33,10.0,North,-9999.0,-,N/A,,Clear,0,2012-11-16 06:15:00
1:35 AM,30.2,30.2,100,30.34,10.0,North,-9999.0,-,N/A,,Clear,0,2012-11-16 06:35:00
1:55 AM,29.8,29.7,99,30.34,10.0,North,-9999.0,-,N/A,,Clear,0,2012-11-16 06:55:00
2:15 AM,29.5,29.3,99,30.35,10.0,North,-9999.0,-,N/A,,Clear,0,2012-11-16 07:15:00
2:35 AM,29.3,29.1,99,30.35,10.0,North,-9999.0,-,N/A,,Clear,0,2012-11-16 07:35:00
2:55 AM,29.3,29.3,100,30.34,10.0,North,-9999.0,-,N/A,,Clear,0,2012-11-16 07:55:00
3:15 AM,28.8,28.6,99,30.34,10.0,North,-9999.0,-,N/A,,Clear,0,2012-11-16 08:15:00
3:35 AM,28.9,28.9,100,30.35,10.0,North,-9999.0,-,N/A,,Clear,0,2012-11-16 08:35:00
3:55 AM,28.9,28.9,100,30.34,10.0,North,-9999.0,-,N/A,,Clear,0,2012-11-16 08:55:00
4:15 AM,28.6,28.6,100,30.35,10.0,North,-9999.0,-,N/A,,Clear,0,2012-11-16 09:15:00
4:35 AM,28.2,27.9,99,30.35,10.0,North,-9999.0,-,N/A,,Clear,0,2012-11-16 09:35:00
4:55 AM,28.2,28.0,99,30.35,10.0,North,-9999.0,-,N/A,,Clear,0,2012-11-16 09:55:00
5:15 AM,28.0,27.9,99,30.35,10.0,North,-9999.0,-,N/A,,Clear,0,2012-11-16 10:15:00
5:35 AM,27.9,27.5,99,30.36,10.0,North,-9999.0,-,N/A,,Clear,0,2012-11-16 10:35:00
5:55 AM,27.7,27.3,99,30.36,10.0,North,-9999.0,-,N/A,,Clear,0,2012-11-16 10:55:00
6:15 AM,27.5,27.1,99,30.36,10.0,North,-9999.0,-,N/A,,Clear,0,2012-11-16 11:15:00
6:35 AM,27.5,27.3,99,30.37,10.0,North,-9999.0,-,N/A,,Clear,0,2012-11-16 11:35:00
6:55 AM,27.3,27.1,99,30.37,10.0,North,-9999.0,-,N/A,,Clear,0,2012-11-16 11:55:00
7:15 AM,27.0,26.6,99,30.38,10.0,North,-9999.0,-,N/A,,Clear,0,2012-11-16 12:15:00
7:35 AM,27.3,27.3,100,30.39,10.0,North,-9999.0,-,N/A,,Clear,0,2012-11-16 12:35:00
8:15 AM,29.3,29.3,100,30.40,10.0,North,-9999.0,-,N/A,,Clear,0,2012-11-16 13:15:00
8:35 AM,31.1,31.1,100,30.41,10.0,North,-9999.0,-,N/A,,Clear,0,2012-11-16 13:35:00
8:55 AM,32.7,32.2,98,30.41,10.0,North,-9999.0,-,N/A,,Clear,0,2012-11-16 13:55:00
9:15 AM,35.1,33.6,94,30.41,10.0,North,-9999.0,-,N/A,,Clear,0,2012-11-16 14:15:00
9:35 AM,36.5,35.1,95,30.41,10.0,North,-9999.0,-,N/A,,Clear,0,2012-11-16 14:35:00
9:55 AM,38.5,35.8,90,30.41,10.0,North,-9999.0,-,N/A,,Clear,0,2012-11-16 14:55:00
10:15 AM,41.7,36.7,82,30.41,10.0,North,-9999.0,-,N/A,,Clear,0,2012-11-16 15:15:00
10:35 AM,44.4,35.8,72,30.41,10.0,North,-9999.0,-,N/A,,Clear,0,2012-11-16 15:35:00
10:55 AM,45.9,35.4,67,30.40,10.0,North,-9999.0,-,N/A,,Clear,0,2012-11-16 15:55:00
11:15 AM,48.4,36.1,63,30.39,10.0,North,-9999.0,-,N/A,,Clear,0,2012-11-16 16:15:00
11:35 AM,48.7,35.1,59,30.39,10.0,North,-9999.0,-,N/A,,Clear,0,2012-11-16 16:35:00
11:55 AM,49.8,35.6,58,30.38,10.0,North,-9999.0,-,N/A,,Clear,0,2012-11-16 16:55:00
12:15 PM,52.5,35.8,53,30.38,10.0,North,-9999.0,-,N/A,,Clear,0,2012-11-16 17:15:00
12:35 PM,52.7,34.2,49,30.37,10.0,North,-9999.0,-,N/A,,Clear,0,2012-11-16 17:35:00
12:55 PM,53.4,34.3,48,30.36,10.0,North,-9999.0,-,N/A,,Clear,0,2012-11-16 17:55:00
1:15 PM,54.7,33.8,45,30.35,10.0,North,-9999.0,-,N/A,,Clear,0,2012-11-16 18:15:00
1:35 PM,55.0,32.7,43,30.35,10.0,North,-9999.0,-,N/A,,Clear,0,2012-11-16 18:35:00
1:55 PM,54.9,32.9,43,30.35,10.0,North,-9999.0,-,N/A,,Clear,0,2012-11-16 18:55:00
2:15 PM,55.9,33.1,42,30.35,10.0,North,-9999.0,-,N/A,,Clear,0,2012-11-16 19:15:00
2:35 PM,56.5,33.6,42,30.35,10.0,North,-9999.0,-,N/A,,Clear,0,2012-11-16 19:35:00
2:55 PM,55.9,32.9,42,30.35,10.0,North,-9999.0,-,N/A,,Clear,0,2012-11-16 19:55:00
3:15 PM,56.3,33.6,42,30.36,10.0,North,-9999.0,-,N/A,,Clear,0,2012-11-16 20:15:00
3:35 PM,54.5,34.0,46,30.36,10.0,North,-9999.0,-,N/A,,Clear,0,2012-11-16 20:35:00
3:55 PM,51.6,34.2,51,30.36,10.0,North,-9999.0,-,N/A,,Clear,0,2012-11-16 20:55:00
4:15 PM,51.4,32.9,49,30.37,10.0,North,-9999.0,-,N/A,,Clear,0,2012-11-16 21:15:00
4:35 PM,47.7,33.8,59,30.37,10.0,North,-9999.0,-,N/A,,Clear,0,2012-11-16 21:35:00
4:55 PM,49.8,32.4,51,30.38,10.0,North,-9999.0,-,N/A,,Clear,0,2012-11-16 21:55:00
5:15 PM,45.5,35.1,67,30.39,10.0,North,-9999.0,-,N/A,,Clear,0,2012-11-16 22:15:00
5:35 PM,42.3,34.5,74,30.39,10.0,North,-9999.0,-,N/A,,Clear,0,2012-11-16 22:35:00
5:55 PM,40.5,34.2,78,30.40,10.0,North,-9999.0,-,N/A,,Clear,0,2012-11-16 22:55:00
6:15 PM,39.4,33.6,80,30.41,10.0,North,-9999.0,-,N/A,,Clear,0,2012-11-16 23:15:00
6:35 PM,37.9,33.3,83,30.42,10.0,North,-9999.0,-,N/A,,Clear,0,2012-11-16 23:35:00
6:55 PM,37.6,32.9,83,30.42,10.0,North,-9999.0,-,N/A,,Clear,0,2012-11-16 23:55:00
7:15 PM,37.0,32.9,85,30.42,10.0,North,-9999.0,-,N/A,,Clear,0,2012-11-17 00:15:00
7:35 PM,35.8,32.4,87,30.43,10.0,North,-9999.0,-,N/A,,Clear,0,2012-11-17 00:35:00
7:55 PM,34.9,32.0,89,30.44,10.0,North,-9999.0,-,N/A,,Clear,0,2012-11-17 00:55:00
8:15 PM,34.5,32.0,90,30.44,10.0,North,-9999.0,-,N/A,,Clear,0,2012-11-17 01:15:00
8:35 PM,33.8,32.0,93,30.44,10.0,North,-9999.0,-,N/A,,Clear,0,2012-11-17 01:35:00
8:55 PM,33.4,31.6,93,30.45,10.0,North,-9999.0,-,N/A,,Clear,0,2012-11-17 01:55:00
9:15 PM,32.9,31.8,96,30.45,10.0,North,-9999.0,-,N/A,,Clear,0,2012-11-17 02:15:00
9:35 PM,32.2,31.6,98,30.45,10.0,North,-9999.0,-,N/A,,Clear,0,2012-11-17 02:35:00
9:55 PM,32.0,31.5,98,30.46,10.0,North,-9999.0,-,N/A,,Clear,0,2012-11-17 02:55:00
10:15 PM,32.0,31.1,96,30.47,10.0,North,-9999.0,-,N/A,,Clear,0,2012-11-17 03:15:00
10:55 PM,31.8,31.1,97,30.47,10.0,North,-9999.0,-,N/A,,Clear,0,2012-11-17 03:55:00
11:15 PM,31.3,30.7,98,30.47,10.0,North,-9999.0,-,N/A,,Clear,0,2012-11-17 04:15:00
11:35 PM,31.1,30.7,99,30.47,10.0,North,-9999.0,-,N/A,,Clear,0,2012-11-17 04:35:00
11:55 PM,30.6,30.0,98,30.47,10.0,North,-9999.0,-,N/A,,Clear,0,2012-11-17 04:55:00